| time (UTC) | temp F | wind direction | speed MPH | gust MPH | rain 1hr in | rain 24hr in | rain mn in | humidity % | barometer mb |
| 20260510180930 | 77 | 174 | 0.0 | 0.0 | 0.00 | 0.00 | 0.00 | 99 | 1008.0 |
| 20260510180430 | 76 | 42 | 0.0 | 0.0 | 0.00 | 0.00 | 0.00 | 99 | 1008.0 |
| 20260510175930 | 76 | 78 | 0.0 | 5.0 | 0.00 | 0.00 | 0.00 | 99 | 1008.0 |
| 20260510175430 | 76 | 40 | 2.0 | 6.0 | 0.00 | 0.00 | 0.00 | 99 | 1008.0 |
| 20260510174930 | 77 | 139 | 2.0 | 6.0 | 0.00 | 0.00 | 0.00 | 99 | 1008.0 |
| 20260510174430 | 80 | 81 | 1.0 | 5.0 | 0.00 | 0.00 | 0.00 | 99 | 1008.0 |
| 20260510173930 | 82 | 45 | 0.0 | 4.0 | 0.00 | 0.00 | 0.00 | 99 | 1008.0 |
| 20260510173430 | 83 | 130 | 0.0 | 0.0 | 0.00 | 0.00 | 0.00 | 99 | 1008.0 |
| 20260510172930 | 82 | 140 | 0.0 | 0.0 | 0.00 | 0.00 | 0.00 | 99 | 1008.0 |
| 20260510172430 | 81 | 145 | 0.0 | 0.0 | 0.00 | 0.00 | 0.00 | 99 | 1008.0 |
| 20260510171930 | 79 | 135 | 0.0 | 0.0 | 0.00 | 0.00 | 0.00 | 99 | 1008.0 |
| 20260510171430 | 77 | 10 | 0.0 | 0.0 | 0.00 | 0.00 | 0.00 | 99 | 1008.0 |
| 20260510170930 | 76 | 71 | 0.0 | 0.0 | 0.00 | 0.00 | 0.00 | 99 | 1008.0 |
| 20260510170430 | 78 | 47 | 0.0 | 0.0 | 0.00 | 0.00 | 0.00 | 99 | 1008.0 |
| 20260510165930 | 79 | 19 | 0.0 | 0.0 | 0.00 | 0.00 | 0.00 | 99 | 1008.0 |
| 20260510165430 | 0 | 139 | 0.0 | 0.0 | 0.00 | 0.00 | 0.00 | 99 | 1008.0 |
| 20260510164930 | 0 | 148 | 0.0 | 0.0 | 0.00 | 0.00 | 0.00 | 99 | 1008.0 |
| 20260510164430 | 66 | 59 | 0.0 | 0.0 | 0.00 | 0.00 | 0.00 | 99 | 1008.0 |
| 20260510163930 | 65 | 227 | 0.0 | 0.0 | 0.00 | 0.00 | 0.00 | 99 | 1008.2 |
| 20260510163430 | 65 | 92 | 0.0 | 0.0 | 0.00 | 0.00 | 0.00 | 99 | 1008.2 |
| 20260510162930 | 66 | 260 | 0.0 | 0.0 | 0.00 | 0.00 | 0.00 | 99 | 1008.2 |
| 20260510162430 | 68 | 83 | 0.0 | 0.0 | 0.00 | 0.00 | 0.00 | 99 | 1008.2 |
| 20260510161930 | 69 | 357 | 0.0 | 0.0 | 0.00 | 0.00 | 0.00 | 99 | 1008.2 |
| 20260510161430 | 70 | 46 | 0.0 | 0.0 | 0.00 | 0.00 | 0.00 | 99 | 1008.0 |
| 20260510160930 | 71 | 85 | 0.0 | 3.0 | 0.00 | 0.00 | 0.00 | 99 | 1008.0 |
| 20260510160430 | 73 | 93 | 0.0 | 3.0 | 0.00 | 0.00 | 0.00 | 99 | 1008.0 |
| 20260510155930 | 74 | 144 | 0.0 | 0.0 | 0.00 | 0.00 | 0.00 | 99 | 1008.0 |
| 20260510155430 | 72 | 258 | 0.0 | 0.0 | 0.00 | 0.00 | 0.00 | 99 | 1008.0 |
| 20260510154930 | 72 | 318 | 0.0 | 0.0 | 0.00 | 0.00 | 0.00 | 99 | 1008.0 |
| 20260510154430 | 72 | 285 | 0.0 | 0.0 | 0.00 | 0.00 | 0.00 | 99 | 1008.0 |
| 20260510153930 | 68 | 79 | 0.0 | 0.0 | 0.00 | 0.00 | 0.00 | 99 | 1008.0 |
| 20260510153430 | 67 | 247 | 0.0 | 0.0 | 0.00 | 0.00 | 0.00 | 99 | 1008.1 |
| 20260510152929 | 68 | 314 | 0.0 | 0.0 | 0.00 | 0.00 | 0.00 | 99 | 1008.2 |
| 20260510152430 | 68 | 45 | 0.0 | 0.0 | 0.00 | 0.00 | 0.00 | 99 | 1008.1 |
| 20260510151930 | 68 | 213 | 0.0 | 0.0 | 0.00 | 0.00 | 0.00 | 99 | 1008.0 |
| 20260510151430 | 69 | 269 | 0.0 | 0.0 | 0.00 | 0.00 | 0.00 | 99 | 1008.0 |
| 20260510150929 | 70 | 178 | 0.0 | 0.0 | 0.00 | 0.00 | 0.00 | 99 | 1008.0 |
| 20260510150430 | 71 | 94 | 0.0 | 0.0 | 0.00 | 0.00 | 0.00 | 99 | 1008.0 |
| 20260510145929 | 72 | 44 | 0.0 | 0.0 | 0.00 | 0.00 | 0.00 | 99 | 1008.0 |
| 20260510145429 | 72 | 284 | 0.0 | 0.0 | 0.00 | 0.00 | 0.00 | 99 | 1008.0 |
| 20260510144929 | 73 | 261 | 0.0 | 0.0 | 0.00 | 0.00 | 0.00 | 99 | 1008.0 |
| 20260510144429 | 73 | 180 | 0.0 | 0.0 | 0.00 | 0.00 | 0.00 | 99 | 1008.0 |
| 20260510143929 | 72 | 253 | 0.0 | 0.0 | 0.00 | 0.00 | 0.00 | 99 | 1008.0 |
| 20260510143430 | 71 | 69 | 0.0 | 0.0 | 0.00 | 0.00 | 0.00 | 99 | 1008.0 |
| 20260510142929 | 68 | 261 | 0.0 | 0.0 | 0.00 | 0.00 | 0.00 | 99 | 1008.0 |
| 20260510142429 | 65 | 316 | 0.0 | 0.0 | 0.00 | 0.00 | 0.00 | 99 | 1008.0 |
| 20260510141929 | 64 | 314 | 0.0 | 0.0 | 0.00 | 0.00 | 0.00 | 99 | 1008.0 |
| 20260510141429 | 64 | 279 | 0.0 | 0.0 | 0.00 | 0.00 | 0.00 | 99 | 1008.0 |
| 20260510140929 | 0 | 306 | 0.0 | 0.0 | 0.00 | 0.00 | 0.00 | 99 | 1008.0 |
| 20260510140429 | 0 | 291 | 0.0 | 0.0 | 0.00 | 0.00 | 0.00 | 99 | 1008.0 |
| 20260510135929 | 0 | 302 | 0.0 | 0.0 | 0.00 | 0.00 | 0.00 | 99 | 1008.0 |
| 20260510135429 | 0 | 313 | 0.0 | 0.0 | 0.00 | 0.00 | 0.00 | 99 | 1008.0 |
| 20260510134929 | 0 | 233 | 0.0 | 0.0 | 0.00 | 0.00 | 0.00 | 99 | 1008.0 |
| 20260510134429 | 0 | 148 | 0.0 | 0.0 | 0.00 | 0.00 | 0.00 | 99 | 1008.0 |
| 20260510133929 | 0 | 230 | 0.0 | 0.0 | 0.00 | 0.00 | 0.00 | 99 | 1007.2 |
| 20260510133430 | 0 | 244 | 0.0 | 0.0 | 0.00 | 0.00 | 0.00 | 99 | 1008.0 |
| 20260510132929 | 0 | 155 | 0.0 | 0.0 | 0.00 | 0.00 | 0.00 | 99 | 1008.0 |
| 20260510132429 | 0 | 274 | 0.0 | 0.0 | 0.00 | 0.00 | 0.00 | 99 | 1008.0 |
| 20260510131929 | 0 | 218 | 0.0 | 0.0 | 0.00 | 0.00 | 0.00 | 99 | 1008.0 |
| 20260510131429 | 0 | 248 | 0.0 | 0.0 | 0.00 | 0.00 | 0.00 | 99 | 1007.2 |
| 20260510130929 | 0 | 228 | 0.0 | 0.0 | 0.00 | 0.00 | 0.00 | 99 | 1008.0 |
| 20260510130429 | 0 | 240 | 0.0 | 0.0 | 0.00 | 0.00 | 0.00 | 99 | 1008.0 |
| 20260510125929 | 0 | 274 | 0.0 | 0.0 | 0.00 | 0.00 | 0.00 | 99 | 1008.0 |
| 20260510125429 | 0 | 273 | 0.0 | 0.0 | 0.00 | 0.00 | 0.00 | 99 | 1008.0 |
| 20260510124929 | 0 | 108 | 0.0 | 0.0 | 0.00 | 0.00 | 0.00 | 99 | 1008.0 |
| 20260510124429 | 0 | 266 | 0.0 | 0.0 | 0.00 | 0.00 | 0.00 | 99 | 1008.0 |
| 20260510123929 | 0 | 12 | 0.0 | 0.0 | 0.00 | 0.00 | 0.00 | 99 | 1008.0 |
| 20260510123430 | 0 | 12 | 0.0 | 0.0 | 0.00 | 0.00 | 0.00 | 99 | 1007.2 |
| 20260510122929 | 0 | 313 | 0.0 | 0.0 | 0.00 | 0.00 | 0.00 | 99 | 1007.2 |
| 20260510122429 | 0 | 181 | 0.0 | 0.0 | 0.00 | 0.00 | 0.00 | 99 | 1007.2 |
| 20260510121929 | 0 | 273 | 0.0 | 0.0 | 0.00 | 0.00 | 0.00 | 99 | 1007.2 |
| 20260510121429 | 0 | 52 | 0.0 | 0.0 | 0.00 | 0.00 | 0.00 | 99 | 1007.2 |
| 20260510120929 | 0 | 90 | 0.0 | 0.0 | 0.00 | 0.00 | 0.00 | 99 | 1007.2 |
| 20260510120429 | 0 | 15 | 0.0 | 0.0 | 0.00 | 0.00 | 0.00 | 99 | 1007.2 |
| 20260510115929 | 0 | 56 | 0.0 | 0.0 | 0.00 | 0.00 | 0.00 | 99 | 1007.2 |
| 20260510115429 | 0 | 37 | 0.0 | 0.0 | 0.00 | 0.00 | 0.00 | 99 | 1008.0 |
| 20260510114929 | 0 | 3 | 0.0 | 0.0 | 0.00 | 0.00 | 0.00 | 99 | 1007.2 |
| 20260510114429 | 0 | 0 | 0.0 | 0.0 | 0.00 | 0.00 | 0.00 | 99 | 1008.0 |
| 20260510113929 | 0 | 286 | 0.0 | 0.0 | 0.00 | 0.00 | 0.00 | 99 | 1008.0 |
| 20260510113429 | 0 | 273 | 0.0 | 0.0 | 0.00 | 0.00 | 0.00 | 99 | 1008.0 |
| 20260510112929 | 0 | 275 | 0.0 | 0.0 | 0.00 | 0.00 | 0.00 | 99 | 1007.2 |
| 20260510112429 | 0 | 254 | 0.0 | 0.0 | 0.00 | 0.00 | 0.00 | 99 | 1008.0 |
| 20260510111929 | 0 | 305 | 0.0 | 0.0 | 0.00 | 0.00 | 0.00 | 99 | 1007.2 |
| 20260510111429 | 0 | 257 | 0.0 | 0.0 | 0.00 | 0.00 | 0.00 | 99 | 1007.2 |
| 20260510110929 | 0 | 261 | 0.0 | 0.0 | 0.00 | 0.00 | 0.00 | 99 | 1008.0 |
| 20260510110429 | 0 | 262 | 0.0 | 0.0 | 0.00 | 0.00 | 0.00 | 99 | 1008.0 |
| 20260510105429 | 0 | 166 | 0.0 | 0.0 | 0.00 | 0.00 | 0.00 | 99 | 1007.2 |
| 20260510104929 | 0 | 150 | 0.0 | 0.0 | 0.00 | 0.00 | 0.00 | 99 | 1008.0 |
| 20260510104429 | 0 | 173 | 0.0 | 0.0 | 0.00 | 0.00 | 0.00 | 99 | 1008.0 |
| 20260510103929 | 0 | 197 | 0.0 | 0.0 | 0.00 | 0.00 | 0.00 | 99 | 1007.1 |
| 20260510103429 | 0 | 101 | 0.0 | 0.0 | 0.00 | 0.00 | 0.00 | 99 | 1007.1 |
| 20260510102929 | 0 | 172 | 0.0 | 0.0 | 0.00 | 0.00 | 0.00 | 99 | 1007.1 |
| 20260510102429 | 0 | 139 | 0.0 | 0.0 | 0.00 | 0.00 | 0.00 | 99 | 1007.0 |
| 20260510101929 | 0 | 163 | 0.0 | 0.0 | 0.00 | 0.00 | 0.00 | 99 | 1007.0 |
| 20260510101429 | 0 | 77 | 0.0 | 0.0 | 0.00 | 0.00 | 0.00 | 99 | 1007.0 |
| 20260510100929 | 0 | 198 | 0.0 | 0.0 | 0.00 | 0.00 | 0.00 | 99 | 1007.0 |
| 20260510100429 | 0 | 141 | 0.0 | 0.0 | 0.00 | 0.00 | 0.00 | 99 | 1007.0 |
| 20260510095929 | 0 | 286 | 0.0 | 0.0 | 0.00 | 0.00 | 0.00 | 99 | 1007.0 |
| 20260510095429 | 0 | 311 | 0.0 | 0.0 | 0.00 | 0.00 | 0.00 | 99 | 1007.0 |
| 20260510094929 | 0 | 190 | 0.0 | 0.0 | 0.00 | 0.00 | 0.00 | 99 | 1007.0 |
| 20260510094429 | 0 | 170 | 0.0 | 0.0 | 0.00 | 0.00 | 0.00 | 99 | 1007.0 |
| 20260510093929 | 0 | 248 | 0.0 | 0.0 | 0.00 | 0.00 | 0.00 | 99 | 1006.2 |
| 20260510093429 | 0 | 180 | 0.0 | 0.0 | 0.00 | 0.00 | 0.00 | 99 | 1007.0 |
| 20260510092929 | 0 | 229 | 0.0 | 0.0 | 0.00 | 0.00 | 0.00 | 99 | 1007.0 |
| 20260510092429 | 0 | 218 | 0.0 | 0.0 | 0.00 | 0.00 | 0.00 | 99 | 1007.0 |
| 20260510091929 | 0 | 233 | 0.0 | 0.0 | 0.00 | 0.00 | 0.00 | 99 | 1007.0 |
| 20260510091429 | 0 | 247 | 0.0 | 0.0 | 0.00 | 0.00 | 0.00 | 99 | 1007.0 |
| 20260510090929 | 0 | 174 | 0.0 | 0.0 | 0.00 | 0.00 | 0.00 | 99 | 1007.0 |
| 20260510090429 | 0 | 133 | 0.0 | 0.0 | 0.00 | 0.00 | 0.00 | 99 | 1007.0 |
| 20260510085929 | 0 | 213 | 0.0 | 0.0 | 0.00 | 0.00 | 0.00 | 99 | 1007.0 |
| 20260510085429 | 0 | 225 | 0.0 | 0.0 | 0.00 | 0.00 | 0.00 | 99 | 1007.0 |
| 20260510084929 | 0 | 278 | 0.0 | 0.0 | 0.00 | 0.00 | 0.00 | 99 | 1007.0 |
| 20260510084429 | 0 | 230 | 0.0 | 0.0 | 0.00 | 0.00 | 0.00 | 99 | 1007.0 |
| 20260510083929 | 0 | 232 | 0.0 | 0.0 | 0.00 | 0.00 | 0.00 | 99 | 1007.0 |
| 20260510083429 | 0 | 169 | 0.0 | 0.0 | 0.00 | 0.00 | 0.00 | 99 | 1007.0 |
| 20260510082929 | 0 | 304 | 0.0 | 0.0 | 0.00 | 0.00 | 0.00 | 99 | 1007.0 |
| 20260510082429 | 0 | 213 | 0.0 | 0.0 | 0.00 | 0.00 | 0.00 | 99 | 1007.0 |
| 20260510081929 | 0 | 272 | 0.0 | 0.0 | 0.00 | 0.00 | 0.00 | 99 | 1007.0 |
| 20260510081429 | 0 | 225 | 0.0 | 0.0 | 0.00 | 0.00 | 0.00 | 99 | 1007.0 |
| 20260510080929 | 0 | 224 | 0.0 | 0.0 | 0.00 | 0.00 | 0.00 | 99 | 1007.0 |
| 20260510080429 | 0 | 258 | 0.0 | 0.0 | 0.00 | 0.00 | 0.00 | 99 | 1007.0 |
| 20260510075929 | 0 | 195 | 0.0 | 0.0 | 0.00 | 0.00 | 0.00 | 99 | 1007.0 |
| 20260510075429 | 0 | 225 | 0.0 | 0.0 | 0.00 | 0.00 | 0.00 | 99 | 1007.0 |
| 20260510074929 | 0 | 249 | 0.0 | 0.0 | 0.00 | 0.00 | 0.00 | 99 | 1007.0 |
| 20260510074429 | 0 | 231 | 0.0 | 0.0 | 0.00 | 0.00 | 0.00 | 99 | 1007.0 |
| 20260510073929 | 0 | 206 | 0.0 | 0.0 | 0.00 | 0.00 | 0.00 | 99 | 1007.0 |
| 20260510073429 | 0 | 211 | 0.0 | 0.0 | 0.00 | 0.00 | 0.00 | 99 | 1007.0 |
| 20260510072929 | 0 | 187 | 0.0 | 0.0 | 0.00 | 0.00 | 0.00 | 99 | 1007.0 |
| 20260510072429 | 0 | 226 | 0.0 | 0.0 | 0.00 | 0.00 | 0.00 | 99 | 1007.0 |
| 20260510071929 | 0 | 216 | 0.0 | 0.0 | 0.00 | 0.00 | 0.00 | 99 | 1007.0 |
| 20260510071429 | 0 | 231 | 0.0 | 0.0 | 0.00 | 0.00 | 0.00 | 99 | 1007.0 |
| 20260510070929 | 0 | 263 | 0.0 | 0.0 | 0.00 | 0.00 | 0.00 | 99 | 1007.0 |
| 20260510070429 | 0 | 166 | 0.0 | 0.0 | 0.00 | 0.00 | 0.00 | 99 | 1007.0 |
| 20260510065929 | 0 | 217 | 0.0 | 0.0 | 0.00 | 0.00 | 0.00 | 99 | 1007.0 |
| 20260510065429 | 0 | 289 | 0.0 | 0.0 | 0.00 | 0.00 | 0.00 | 99 | 1007.0 |
| 20260510064929 | 0 | 122 | 0.0 | 0.0 | 0.00 | 0.00 | 0.00 | 99 | 1007.0 |
| 20260510064429 | 0 | 24 | 0.0 | 0.0 | 0.00 | 0.00 | 0.00 | 99 | 1007.0 |
| 20260510063929 | 0 | 177 | 0.0 | 0.0 | 0.00 | 0.00 | 0.00 | 99 | 1007.0 |
| 20260510063429 | 0 | 266 | 0.0 | 0.0 | 0.00 | 0.00 | 0.00 | 99 | 1007.0 |
| 20260510062929 | 0 | 197 | 0.0 | 0.0 | 0.00 | 0.00 | 0.00 | 99 | 1007.0 |
| 20260510062429 | 0 | 214 | 0.0 | 0.0 | 0.00 | 0.00 | 0.00 | 99 | 1007.0 |
| 20260510061929 | 0 | 0 | 0.0 | 0.0 | 0.00 | 0.00 | 0.00 | 99 | 1007.0 |
| 20260510061429 | 0 | 143 | 0.0 | 0.0 | 0.00 | 0.00 | 0.00 | 99 | 1007.0 |
| 20260510060929 | 0 | 184 | 0.0 | 0.0 | 0.00 | 0.00 | 0.00 | 99 | 1007.0 |
| 20260510060429 | 0 | 177 | 0.0 | 0.0 | 0.00 | 0.00 | 0.00 | 99 | 1007.0 |
| 20260510055929 | 0 | 133 | 0.0 | 0.0 | 0.00 | 0.00 | 0.00 | 99 | 1007.0 |
| 20260510055429 | 0 | 289 | 0.0 | 0.0 | 0.00 | 0.00 | 0.00 | 99 | 1007.0 |
| 20260510054929 | 0 | 267 | 0.0 | 0.0 | 0.00 | 0.00 | 0.00 | 99 | 1007.0 |
| 20260510054429 | 0 | 202 | 0.0 | 0.0 | 0.00 | 0.00 | 0.00 | 99 | 1007.0 |
| 20260510053929 | 0 | 181 | 0.0 | 0.0 | 0.00 | 0.00 | 0.00 | 99 | 1007.0 |
| 20260510053429 | 0 | 182 | 0.0 | 0.0 | 0.00 | 0.00 | 0.00 | 99 | 1007.0 |
| 20260510052929 | 0 | 270 | 0.0 | 0.0 | 0.00 | 0.00 | 0.00 | 99 | 1007.0 |
| 20260510052429 | 0 | 228 | 0.0 | 0.0 | 0.00 | 0.00 | 0.00 | 99 | 1007.0 |
| 20260510051929 | 0 | 204 | 0.0 | 0.0 | 0.00 | 0.00 | 0.00 | 99 | 1007.0 |
| 20260510051429 | 0 | 224 | 0.0 | 0.0 | 0.00 | 0.00 | 0.00 | 99 | 1007.0 |
| 20260510050929 | 0 | 183 | 0.0 | 0.0 | 0.00 | 0.00 | 0.00 | 99 | 1007.0 |
| 20260510050429 | 0 | 221 | 0.0 | 0.0 | 0.00 | 0.00 | 0.00 | 99 | 1007.0 |
| 20260510045929 | 0 | 166 | 0.0 | 0.0 | 0.00 | 0.00 | 0.00 | 99 | 1006.2 |
| 20260510045429 | 0 | 229 | 0.0 | 0.0 | 0.00 | 0.00 | 0.00 | 99 | 1007.0 |
| 20260510044929 | 0 | 259 | 0.0 | 0.0 | 0.00 | 0.00 | 0.00 | 99 | 1007.0 |
| 20260510044429 | 0 | 282 | 0.0 | 0.0 | 0.00 | 0.00 | 0.00 | 99 | 1007.0 |
| 20260510043929 | 0 | 231 | 0.0 | 0.0 | 0.00 | 0.00 | 0.00 | 99 | 1007.0 |
| 20260510043429 | 0 | 189 | 0.0 | 0.0 | 0.00 | 0.00 | 0.00 | 99 | 1007.0 |
| 20260510042929 | 0 | 186 | 0.0 | 0.0 | 0.00 | 0.00 | 0.00 | 99 | 1007.0 |
| 20260510042429 | 0 | 185 | 0.0 | 0.0 | 0.00 | 0.00 | 0.00 | 99 | 1007.0 |
| 20260510041929 | 0 | 186 | 0.0 | 0.0 | 0.00 | 0.00 | 0.00 | 99 | 1007.0 |
| 20260510041429 | 0 | 256 | 0.0 | 0.0 | 0.00 | 0.00 | 0.00 | 99 | 1007.0 |
| 20260510040929 | 0 | 218 | 0.0 | 1.0 | 0.00 | 0.00 | 0.00 | 99 | 1007.0 |
| 20260510040429 | 0 | 247 | 0.0 | 1.0 | 0.00 | 0.00 | 0.00 | 99 | 1007.0 |
| 20260510035929 | 0 | 243 | 0.0 | 0.0 | 0.00 | 0.00 | 0.00 | 99 | 1007.0 |
| 20260510035429 | 0 | 261 | 0.0 | 0.0 | 0.00 | 0.00 | 0.00 | 99 | 1007.0 |
| 20260510034929 | 0 | 229 | 0.0 | 0.0 | 0.00 | 0.00 | 0.00 | 99 | 1007.0 |
| 20260510034429 | 0 | 218 | 0.0 | 0.0 | 0.00 | 0.00 | 0.00 | 99 | 1007.0 |
| 20260510033929 | 0 | 256 | 0.0 | 0.0 | 0.00 | 0.00 | 0.00 | 99 | 1007.0 |
| 20260510033429 | 0 | 232 | 0.0 | 0.0 | 0.00 | 0.00 | 0.00 | 99 | 1007.0 |
| 20260510032929 | 0 | 223 | 0.0 | 0.0 | 0.00 | 0.00 | 0.00 | 99 | 1007.0 |
| 20260510032429 | 0 | 229 | 0.0 | 0.0 | 0.00 | 0.00 | 0.00 | 99 | 1007.0 |
| 20260510031929 | 0 | 237 | 0.0 | 0.0 | 0.00 | 0.00 | 0.00 | 99 | 1006.2 |
| 20260510031429 | 0 | 240 | 0.0 | 0.0 | 0.00 | 0.00 | 0.00 | 99 | 1007.0 |
| 20260510030929 | 0 | 216 | 0.0 | 0.0 | 0.00 | 0.00 | 0.00 | 99 | 1007.0 |
| 20260510030429 | 0 | 263 | 0.0 | 0.0 | 0.00 | 0.00 | 0.00 | 99 | 1007.0 |
| 20260510025929 | 0 | 208 | 0.0 | 0.0 | 0.00 | 0.00 | 0.00 | 99 | 1007.0 |
| 20260510025429 | 0 | 171 | 0.0 | 0.0 | 0.00 | 0.00 | 0.00 | 99 | 1007.0 |
| 20260510024929 | 0 | 191 | 0.0 | 0.0 | 0.00 | 0.00 | 0.00 | 99 | 1007.0 |
| 20260510024429 | 0 | 257 | 0.0 | 0.0 | 0.00 | 0.00 | 0.00 | 99 | 1007.0 |
| 20260510023929 | 0 | 233 | 0.0 | 0.0 | 0.00 | 0.00 | 0.00 | 99 | 1007.0 |
| 20260510023429 | 0 | 235 | 0.0 | 0.0 | 0.00 | 0.00 | 0.00 | 99 | 1007.0 |
| 20260510022929 | 0 | 257 | 0.0 | 0.0 | 0.00 | 0.00 | 0.00 | 99 | 1007.0 |
| 20260510022429 | 0 | 256 | 0.0 | 0.0 | 0.00 | 0.00 | 0.00 | 99 | 1007.0 |
| 20260510021929 | 0 | 262 | 0.0 | 0.0 | 0.00 | 0.00 | 0.00 | 99 | 1007.0 |
| 20260510021429 | 0 | 223 | 0.0 | 0.0 | 0.00 | 0.00 | 0.00 | 99 | 1007.0 |
| 20260510020929 | 0 | 232 | 0.0 | 0.0 | 0.00 | 0.00 | 0.00 | 99 | 1007.0 |
| 20260510020428 | 0 | 223 | 0.0 | 0.0 | 0.00 | 0.00 | 0.00 | 99 | 1007.0 |
| 20260510015928 | 0 | 178 | 0.0 | 0.0 | 0.00 | 0.00 | 0.00 | 99 | 1007.0 |
| 20260510015428 | 0 | 209 | 0.0 | 0.0 | 0.00 | 0.00 | 0.00 | 99 | 1007.0 |
| 20260510014928 | 0 | 186 | 0.0 | 0.0 | 0.00 | 0.00 | 0.00 | 99 | 1007.0 |
| 20260510014429 | 0 | 171 | 0.0 | 0.0 | 0.00 | 0.00 | 0.00 | 99 | 1007.0 |
| 20260510013928 | 0 | 217 | 0.0 | 0.0 | 0.00 | 0.00 | 0.00 | 99 | 1006.2 |
| 20260510013429 | 0 | 254 | 0.0 | 0.0 | 0.00 | 0.00 | 0.00 | 99 | 1007.0 |
| 20260510012928 | 0 | 239 | 0.0 | 0.0 | 0.00 | 0.00 | 0.00 | 99 | 1007.0 |
| 20260510012428 | 0 | 195 | 0.0 | 0.0 | 0.00 | 0.00 | 0.00 | 99 | 1006.2 |
| 20260510011929 | 0 | 227 | 0.0 | 0.0 | 0.00 | 0.00 | 0.00 | 99 | 1007.0 |
| 20260510011428 | 0 | 184 | 0.0 | 0.0 | 0.00 | 0.00 | 0.00 | 99 | 1007.0 |
| 20260510010928 | 0 | 286 | 0.0 | 0.0 | 0.00 | 0.00 | 0.00 | 99 | 1007.0 |
| 20260510010428 | 0 | 234 | 0.0 | 0.0 | 0.00 | 0.00 | 0.00 | 99 | 1007.0 |
| 20260510005928 | 0 | 235 | 0.0 | 0.0 | 0.00 | 0.00 | 0.00 | 99 | 1007.0 |
| 20260510005428 | 0 | 251 | 0.0 | 0.0 | 0.00 | 0.00 | 0.00 | 99 | 1007.0 |
| 20260510004928 | 0 | 242 | 0.0 | 0.0 | 0.00 | 0.00 | 0.00 | 99 | 1007.0 |
| 20260510004428 | 0 | 238 | 0.0 | 0.0 | 0.00 | 0.00 | 0.00 | 99 | 1007.0 |
| 20260510003928 | 0 | 268 | 0.0 | 0.0 | 0.00 | 0.00 | 0.00 | 99 | 1007.0 |
| 20260510003429 | 0 | 252 | 0.0 | 1.0 | 0.00 | 0.00 | 0.00 | 99 | 1007.0 |
| 20260510002928 | 0 | 249 | 0.0 | 2.0 | 0.00 | 0.00 | 0.00 | 99 | 1006.1 |
| 20260510002428 | 0 | 230 | 0.0 | 2.0 | 0.00 | 0.00 | 0.00 | 99 | 1006.0 |
| 20260510001928 | 0 | 224 | 0.0 | 3.0 | 0.00 | 0.00 | 0.00 | 99 | 1006.0 |
| 20260510001428 | 0 | 215 | 0.0 | 4.0 | 0.00 | 0.00 | 0.00 | 99 | 1006.0 |
| 20260510000928 | 0 | 227 | 0.0 | 4.0 | 0.00 | 0.00 | 0.00 | 99 | 1006.0 |
| 20260510000428 | 0 | 229 | 0.0 | 3.0 | 0.00 | 0.00 | 0.00 | 99 | 1006.0 |
| 20260509235928 | 0 | 249 | 0.0 | 3.0 | 0.00 | 0.00 | 0.00 | 99 | 1006.0 |
| 20260509235428 | 0 | 260 | 0.0 | 3.0 | 0.00 | 0.00 | 0.00 | 99 | 1006.0 |
| 20260509234928 | 0 | 244 | 0.0 | 3.0 | 0.00 | 0.00 | 0.00 | 99 | 1006.0 |
| 20260509234428 | 0 | 237 | 1.0 | 4.0 | 0.00 | 0.00 | 0.00 | 99 | 1006.0 |
| 20260509233928 | 0 | 241 | 1.0 | 4.0 | 0.00 | 0.00 | 0.00 | 99 | 1006.0 |
| 20260509233429 | 0 | 236 | 0.0 | 4.0 | 0.00 | 0.00 | 0.00 | 99 | 1005.2 |
| 20260509232928 | 0 | 225 | 1.0 | 4.0 | 0.00 | 0.00 | 0.00 | 99 | 1006.0 |
| 20260509232428 | 0 | 227 | 0.0 | 2.0 | 0.00 | 0.00 | 0.00 | 99 | 1005.2 |
| 20260509231928 | 0 | 264 | 0.0 | 3.0 | 0.00 | 0.00 | 0.00 | 99 | 1005.2 |
| 20260509231428 | 0 | 256 | 1.0 | 3.0 | 0.00 | 0.00 | 0.00 | 99 | 1005.2 |
| 20260509230928 | 0 | 260 | 0.0 | 2.0 | 0.00 | 0.00 | 0.00 | 99 | 1005.2 |
| 20260509230428 | 0 | 274 | 0.0 | 3.0 | 0.00 | 0.00 | 0.00 | 99 | 1005.2 |
| 20260509225928 | 0 | 260 | 0.0 | 4.0 | 0.00 | 0.00 | 0.00 | 99 | 1005.2 |
| 20260509225428 | 0 | 226 | 1.0 | 4.0 | 0.00 | 0.00 | 0.00 | 99 | 1006.0 |
| 20260509224928 | 0 | 269 | 0.0 | 4.0 | 0.00 | 0.00 | 0.00 | 99 | 1006.0 |
| 20260509224428 | 0 | 237 | 1.0 | 4.0 | 0.00 | 0.00 | 0.00 | 99 | 1006.0 |
| 20260509223928 | 0 | 258 | 1.0 | 4.0 | 0.00 | 0.00 | 0.00 | 99 | 1006.0 |
| 20260509223428 | 0 | 217 | 1.0 | 4.0 | 0.00 | 0.00 | 0.00 | 99 | 1005.2 |
| 20260509222928 | 0 | 233 | 1.0 | 4.0 | 0.00 | 0.00 | 0.00 | 99 | 1005.2 |
| 20260509222428 | 0 | 176 | 1.0 | 4.0 | 0.00 | 0.00 | 0.00 | 99 | 1005.2 |
| 20260509221928 | 0 | 158 | 1.0 | 3.0 | 0.00 | 0.00 | 0.00 | 99 | 1006.0 |
| 20260509221428 | 0 | 242 | 0.0 | 4.0 | 0.00 | 0.00 | 0.00 | 99 | 1006.0 |
| 20260509220928 | 0 | 268 | 1.0 | 4.0 | 0.00 | 0.00 | 0.00 | 99 | 1006.0 |
| 20260509220428 | 0 | 158 | 1.0 | 4.0 | 0.00 | 0.00 | 0.00 | 99 | 1005.2 |
| 20260509215928 | 0 | 232 | 0.0 | 0.0 | 0.00 | 0.00 | 0.00 | 99 | 1006.0 |
| 20260509215428 | 0 | 255 | 0.0 | 0.0 | 0.00 | 0.00 | 0.00 | 99 | 1006.0 |
| 20260509214928 | 0 | 220 | 0.0 | 0.0 | 0.00 | 0.00 | 0.00 | 99 | 1006.0 |
| 20260509214428 | 0 | 245 | 0.0 | 0.0 | 0.00 | 0.00 | 0.00 | 99 | 1006.0 |
| 20260509213928 | 0 | 321 | 0.0 | 0.0 | 0.00 | 0.00 | 0.00 | 99 | 1006.0 |
| 20260509213428 | 0 | 216 | 0.0 | 0.0 | 0.00 | 0.00 | 0.00 | 99 | 1005.2 |
| 20260509212928 | 0 | 267 | 0.0 | 0.0 | 0.00 | 0.00 | 0.00 | 99 | 1006.0 |
| 20260509212428 | 0 | 180 | 0.0 | 0.0 | 0.00 | 0.00 | 0.00 | 99 | 1005.2 |
| 20260509211928 | 0 | 252 | 0.0 | 0.0 | 0.00 | 0.00 | 0.00 | 99 | 1006.0 |
| 20260509211428 | 0 | 220 | 0.0 | 0.0 | 0.00 | 0.00 | 0.00 | 99 | 1005.2 |
| 20260509210928 | 0 | 252 | 0.0 | 0.0 | 0.00 | 0.00 | 0.00 | 99 | 1006.0 |
| 20260509210428 | 0 | 227 | 0.0 | 0.0 | 0.00 | 0.00 | 0.00 | 99 | 1006.0 |
| 20260509205928 | 0 | 221 | 0.0 | 0.0 | 0.00 | 0.00 | 0.00 | 99 | 1005.2 |
| 20260509205428 | 0 | 226 | 0.0 | 0.0 | 0.00 | 0.00 | 0.00 | 99 | 1006.0 |
| 20260509204928 | 0 | 219 | 0.0 | 0.0 | 0.00 | 0.00 | 0.00 | 99 | 1006.0 |
| 20260509204428 | 0 | 268 | 0.0 | 0.0 | 0.00 | 0.00 | 0.00 | 99 | 1006.0 |
| 20260509203928 | 0 | 219 | 0.0 | 0.0 | 0.00 | 0.00 | 0.00 | 99 | 1006.0 |
| 20260509203428 | 0 | 266 | 0.0 | 0.0 | 0.00 | 0.00 | 0.00 | 99 | 1006.0 |
| 20260509202928 | 0 | 259 | 0.0 | 0.0 | 0.00 | 0.00 | 0.00 | 99 | 1006.0 |
| 20260509202428 | 0 | 240 | 0.0 | 0.0 | 0.00 | 0.00 | 0.00 | 99 | 1006.0 |
| 20260509201928 | 0 | 208 | 0.0 | 0.0 | 0.00 | 0.00 | 0.00 | 99 | 1006.0 |
| 20260509201428 | 0 | 216 | 0.0 | 0.0 | 0.00 | 0.00 | 0.00 | 99 | 1006.0 |
| 20260509200928 | 0 | 187 | 0.0 | 0.0 | 0.00 | 0.00 | 0.00 | 99 | 1006.0 |
| 20260509200428 | 0 | 215 | 0.0 | 0.0 | 0.00 | 0.00 | 0.00 | 99 | 1006.1 |
| 20260509195928 | 0 | 227 | 0.0 | 0.0 | 0.00 | 0.00 | 0.00 | 99 | 1006.1 |
| 20260509195428 | 0 | 227 | 0.0 | 0.0 | 0.00 | 0.00 | 0.00 | 99 | 1006.2 |
| 20260509194928 | 0 | 258 | 0.0 | 0.0 | 0.00 | 0.00 | 0.00 | 99 | 1006.2 |
| 20260509194428 | 0 | 236 | 0.0 | 3.0 | 0.00 | 0.00 | 0.00 | 99 | 1007.0 |
| 20260509193928 | 0 | 231 | 1.0 | 3.0 | 0.00 | 0.00 | 0.00 | 99 | 1006.2 |
| 20260509193428 | 0 | 222 | 2.0 | 3.0 | 0.00 | 0.00 | 0.00 | 99 | 1007.0 |
| 20260509192928 | 0 | 220 | 2.0 | 5.0 | 0.00 | 0.00 | 0.00 | 99 | 1007.0 |
| 20260509192428 | 0 | 217 | 1.0 | 5.0 | 0.00 | 0.00 | 0.00 | 99 | 1007.0 |
| 20260509191928 | 0 | 222 | 1.0 | 4.0 | 0.00 | 0.00 | 0.00 | 99 | 1006.2 |
| 20260509191428 | 0 | 232 | 1.0 | 4.0 | 0.00 | 0.00 | 0.00 | 99 | 1007.0 |
| 20260509190928 | 0 | 226 | 1.0 | 4.0 | 0.00 | 0.00 | 0.00 | 99 | 1007.0 |
| 20260509190428 | 0 | 234 | 1.0 | 4.0 | 0.00 | 0.00 | 0.00 | 99 | 1006.2 |
| 20260509185928 | 0 | 252 | 1.0 | 3.0 | 0.00 | 0.00 | 0.00 | 99 | 1007.0 |
| 20260509185428 | 0 | 232 | 0.0 | 0.0 | 0.00 | 0.00 | 0.00 | 99 | 1006.2 |
| 20260509184928 | 0 | 235 | 0.0 | 0.0 | 0.00 | 0.00 | 0.00 | 99 | 1006.2 |
| 20260509184428 | 0 | 247 | 0.0 | 0.0 | 0.00 | 0.00 | 0.00 | 99 | 1006.2 |
| 20260509183928 | 0 | 257 | 0.0 | 0.0 | 0.00 | 0.00 | 0.00 | 99 | 1007.0 |
| 20260509183428 | 0 | 220 | 0.0 | 0.0 | 0.00 | 0.00 | 0.00 | 99 | 1007.0 |
| 20260509182928 | 0 | 236 | 0.0 | 0.0 | 0.00 | 0.00 | 0.00 | 99 | 1007.0 |
| 20260509182428 | 0 | 228 | 0.0 | 0.0 | 0.00 | 0.00 | 0.00 | 99 | 1007.0 |
| 20260509181928 | 0 | 188 | 0.0 | 0.0 | 0.00 | 0.00 | 0.00 | 99 | 1007.0 |
| 20260509181428 | 0 | 231 | 0.0 | 0.0 | 0.00 | 0.00 | 0.00 | 99 | 1006.2 |